G4SEJ Weather Reports


time (UTC)temp
C
wind
direction
speed
KPH
gust
KPH
rain 1hr
cm
rain 24hr
cm
rain mn
cm
humidity
%
barometer
mb
20260507064731 10 86 1.6 8.0 0.00 0.00 0.00 80 1014.9
20260507064231 10 65 3.2 8.0 0.00 0.00 0.00 80 1014.9
20260507063731 10 72 3.2 8.0 0.00 0.00 0.00 80 1014.9
20260507063231 10 42 4.8 11.3 0.00 0.00 0.00 81 1015.0
20260507062729 10 57 4.8 11.3 0.00 0.00 0.00 82 1014.9
20260507062222 10 79 1.6 4.8 0.00 0.00 0.00 84 1014.9
20260507061723 10 353 0.0 3.2 0.00 0.00 0.00 87 1014.9
20260507061221 10 105 0.0 0.0 0.00 0.00 0.00 88 1014.8
20260507060222 10 105 0.0 0.0 0.00 0.00 0.00 89 1014.6
20260507055722 10 105 0.0 0.0 0.00 0.00 0.00 89 1014.6
20260507055223 9 105 0.0 0.0 0.00 0.00 0.00 90 1014.6
20260507054217 9 105 0.0 0.0 0.00 0.00 0.00 90 1014.5
20260507053719 9 105 0.0 0.0 0.00 0.00 0.00 90 1014.5
20260507052219 8 105 0.0 0.0 0.00 0.00 0.00 90 1014.5
20260507051726 8 105 0.0 0.0 0.00 0.00 0.00 90 1014.5
20260507050715 8 105 0.0 0.0 0.00 0.00 0.00 90 1014.5
20260507045713 8 105 0.0 0.0 0.00 0.00 0.00 90 1014.4
20260507045215 8 105 0.0 0.0 0.00 0.00 0.00 90 1014.3
20260507044714 8 105 0.0 0.0 0.00 0.00 0.00 90 1014.4
20260507044213 8 105 0.0 0.0 0.00 0.00 0.00 90 1014.3
20260507042900 8 105 0.0 0.0 0.00 0.00 0.00 89 1014.2
20260507042400 8 105 0.0 0.0 0.00 0.00 0.00 89 1014.1
20260507041900 8 105 0.0 0.0 0.00 0.00 0.00 89 1014.1
20260507041401 8 105 0.0 0.0 0.00 0.00 0.00 89 1014.1
20260507040356 8 105 0.0 3.2 0.00 0.00 0.00 89 1014.1
20260507035856 8 105 0.0 3.2 0.00 0.00 0.00 89 1014.1
20260507035355 8 105 0.0 0.0 0.00 0.00 0.00 89 1014.1
20260507034855 8 106 0.0 1.6 0.00 0.00 0.00 89 1014.1
20260507033849 8 82 0.0 0.0 0.00 0.00 0.00 88 1014.0
20260507033348 8 82 0.0 0.0 0.00 0.00 0.00 88 1014.0
20260507032846 8 82 0.0 0.0 0.00 0.00 0.00 89 1014.1
20260507032345 8 82 0.0 0.0 0.00 0.00 0.00 89 1014.0
20260507031843 8 82 0.0 0.0 0.00 0.00 0.00 88 1014.0
20260507031339 8 82 0.0 0.0 0.00 0.00 0.00 88 1014.0
20260507030835 8 82 0.0 0.0 0.00 0.00 0.00 88 1014.0
20260507030348 8 82 0.0 0.0 0.00 0.00 0.00 87 1014.0
20260507025833 8 82 0.0 0.0 0.00 0.00 0.00 87 1013.9
20260507024825 8 82 0.0 0.0 0.00 0.00 0.00 87 1013.9
20260507024323 8 82 0.0 0.0 0.00 0.00 0.00 86 1013.8
20260507023323 8 82 0.0 0.0 0.00 0.00 0.00 86 1013.8
20260507022824 8 82 0.0 0.0 0.00 0.00 0.00 86 1013.8
20260507022324 9 82 0.0 0.0 0.00 0.00 0.00 85 1013.8
20260507021831 9 82 0.0 0.0 0.00 0.00 0.00 85 1013.8
20260507021317 9 82 0.0 0.0 0.00 0.00 0.00 85 1013.8
20260507020817 9 82 0.0 0.0 0.00 0.00 0.00 84 1013.8
20260507020318 9 82 0.0 0.0 0.00 0.00 0.00 84 1013.8
20260507014825 10 82 0.0 4.8 0.00 0.03 0.00 84 1013.7
20260507014322 10 47 1.6 4.8 0.00 0.03 0.00 84 1013.7
20260507013315 10 51 1.6 4.8 0.00 0.03 0.00 84 1013.8
20260507012817 10 67 0.0 4.8 0.00 0.03 0.00 83 1013.7
20260507012317 10 53 1.6 6.4 0.00 0.03 0.00 83 1013.8
20260507011817 10 79 1.6 6.4 0.00 0.03 0.00 83 1013.8
20260507011314 10 53 1.6 6.4 0.00 0.03 0.00 83 1013.8
20260507010814 10 72 3.2 6.4 0.00 0.03 0.00 83 1013.8
20260507010310 10 55 3.2 8.0 0.00 0.03 0.00 83 1013.7
20260507005810 10 60 3.2 8.0 0.00 0.03 0.00 83 1013.7
20260507005308 10 45 3.2 8.0 0.00 0.03 0.00 83 1013.7
20260507004809 10 54 4.8 8.0 0.00 0.03 0.00 83 1013.7
20260507004308 10 54 3.2 8.0 0.00 0.03 0.00 83 1013.7
20260507003807 10 63 3.2 8.0 0.00 0.03 0.00 83 1013.6
20260507003302 10 53 1.6 6.4 0.00 0.03 0.00 83 1013.6
20260507002801 10 75 1.6 6.4 0.00 0.03 0.00 83 1013.6
20260507002258 10 54 3.2 8.0 0.00 0.03 0.00 83 1013.7
20260507001757 10 46 4.8 11.3 0.00 0.03 0.00 83 1013.7
20260507001256 10 59 4.8 11.3 0.00 0.03 0.00 83 1013.7
20260507000753 10 49 4.8 9.7 0.00 0.03 0.00 83 1013.7
20260507000252 10 70 4.8 9.7 0.00 0.03 0.00 83 1013.8
20260506235252 10 63 4.8 11.3 0.00 0.03 0.00 83 1013.8
20260506234752 10 56 4.8 8.0 0.00 0.03 0.00 83 1013.8
20260506234252 10 58 4.8 8.0 0.00 0.03 0.00 83 1013.7
20260506233751 10 71 3.2 9.7 0.00 0.03 0.00 83 1013.7
20260506233247 10 58 1.6 8.0 0.00 0.03 0.00 83 1013.6
20260506231748 10 58 3.2 8.0 0.00 0.03 0.00 83 1013.6
20260506231246 10 55 4.8 9.7 0.00 0.03 0.00 82 1013.6
20260506230746 10 61 4.8 9.7 0.00 0.03 0.00 82 1013.6
20260506225743 10 56 4.8 11.3 0.00 0.03 0.03 83 1013.7
20260506224744 10 67 3.2 8.0 0.00 0.03 0.03 83 1013.6
20260506224245 10 61 3.2 8.0 0.00 0.03 0.03 83 1013.6
20260506223744 10 65 4.8 11.3 0.00 0.03 0.03 82 1013.6
20260506223244 10 46 3.2 11.3 0.00 0.03 0.03 82 1013.5
20260506222741 10 49 3.2 6.4 0.00 0.03 0.03 82 1013.5
20260506222240 10 69 3.2 8.0 0.00 0.03 0.03 83 1013.5
20260506221739 10 30 3.2 8.0 0.00 0.03 0.03 83 1013.5
20260506221239 10 54 3.2 8.0 0.00 0.03 0.03 83 1013.5
20260506220738 10 56 3.2 8.0 0.00 0.03 0.03 83 1013.4
20260506220238 10 43 3.2 8.0 0.00 0.03 0.03 82 1013.4
20260506215731 10 69 1.6 6.4 0.00 0.03 0.03 82 1013.4
20260506215229 10 58 3.2 8.0 0.00 0.03 0.03 82 1013.3
20260506214728 10 63 4.8 8.0 0.00 0.03 0.03 82 1013.4
20260506214226 10 49 4.8 11.3 0.00 0.03 0.03 82 1013.3
20260506213726 10 44 6.4 11.3 0.00 0.03 0.03 82 1013.3
20260506213219 10 66 4.8 9.7 0.00 0.03 0.03 82 1013.3
20260506212720 10 54 6.4 14.5 0.00 0.03 0.03 82 1013.3
20260506212221 10 60 6.4 14.5 0.00 0.03 0.03 82 1013.3
20260506211720 10 59 6.4 12.9 0.00 0.03 0.03 82 1013.3
20260506211220 10 103 4.8 11.3 0.00 0.03 0.03 82 1013.3
20260506210720 10 46 4.8 12.9 0.00 0.03 0.03 82 1013.3
20260506210214 10 32 6.4 14.5 0.00 0.03 0.03 82 1013.2
20260506205714 10 6 6.4 14.5 0.00 0.03 0.03 82 1013.2
20260506204714 10 51 6.4 12.9 0.00 0.03 0.03 82 1013.2
20260506204214 10 61 6.4 12.9 0.00 0.03 0.03 82 1013.2
20260506203714 10 49 6.4 12.9 0.00 0.03 0.03 83 1013.1
20260506203209 10 67 6.4 12.9 0.00 0.03 0.03 82 1013.1
20260506202707 10 37 6.4 12.9 0.00 0.03 0.03 82 1013.0
20260506201708 10 54 6.4 14.5 0.00 0.03 0.03 82 1013.0
20260506200200 10 64 4.8 12.9 0.00 0.03 0.03 81 1012.9
20260506195702 10 59 6.4 12.9 0.00 0.03 0.03 81 1012.9
20260506195202 10 45 6.4 11.3 0.00 0.03 0.03 82 1012.8
20260506194703 10 67 6.4 11.3 0.00 0.03 0.03 81 1012.7
20260506194202 10 63 6.4 11.3 0.00 0.03 0.03 81 1012.7
20260506193715 10 69 6.4 11.3 0.00 0.03 0.03 82 1012.6
20260506193155 10 62 6.4 12.9 0.00 0.03 0.03 83 1012.6
20260506192656 10 35 6.4 12.9 0.00 0.03 0.03 83 1012.5
20260506192156 10 68 6.4 11.3 0.00 0.03 0.03 83 1012.5
20260506191656 10 82 6.4 9.7 0.00 0.03 0.03 83 1012.5
20260506190656 10 56 4.8 11.3 0.00 0.03 0.03 83 1012.3
20260506185153 10 49 4.8 9.7 0.00 0.03 0.03 83 1012.2
20260506184706 10 98 4.8 9.7 0.00 0.03 0.03 83 1012.2
20260506184153 10 63 4.8 9.7 0.00 0.03 0.03 81 1012.2
20260506183653 10 89 4.8 9.7 0.00 0.03 0.03 81 1012.2
20260506183154 10 72 4.8 9.7 0.00 0.03 0.03 82 1012.2
20260506182648 10 62 4.8 9.7 0.00 0.03 0.03 82 1012.1
20260506181648 11 60 4.8 9.7 0.00 0.03 0.03 82 1012.0
20260506181148 11 56 4.8 11.3 0.00 0.03 0.03 82 1011.9
20260506180645 11 41 4.8 11.3 0.00 0.03 0.03 82 1011.9
20260506180144 11 58 4.8 9.7 0.00 0.03 0.03 82 1011.8
20260506175643 11 90 4.8 11.3 0.00 0.03 0.03 82 1011.8
20260506175145 11 48 4.8 11.3 0.00 0.03 0.03 82 1011.8
20260506174639 11 44 4.8 9.7 0.00 0.03 0.03 81 1011.7
20260506174136 11 60 3.2 9.7 0.00 0.03 0.03 81 1011.7
20260506173630 11 58 3.2 9.7 0.00 0.03 0.03 80 1011.6
20260506173128 11 65 4.8 9.7 0.00 0.03 0.03 80 1011.7
20260506172622 11 68 4.8 11.3 0.00 0.03 0.03 80 1011.7
20260506172119 11 68 4.8 11.3 0.00 0.03 0.03 79 1011.6
20260506171613 11 42 3.2 9.7 0.00 0.03 0.03 79 1011.6
20260506171112 11 62 4.8 11.3 0.00 0.03 0.03 80 1011.6
20260506170112 11 75 4.8 11.3 0.00 0.03 0.03 79 1011.6
20260506165608 11 73 4.8 11.3 0.00 0.03 0.03 80 1011.6
20260506165108 11 66 3.2 9.7 0.00 0.03 0.03 81 1011.6
20260506164607 11 48 3.2 9.7 0.00 0.03 0.03 81 1011.6
20260506164109 11 70 3.2 9.7 0.00 0.03 0.03 81 1011.6
20260506163608 11 349 3.2 11.3 0.00 0.03 0.03 81 1011.6
20260506163103 11 60 3.2 11.3 0.00 0.03 0.03 80 1011.7
20260506162603 11 55 4.8 11.3 0.00 0.03 0.03 82 1011.6
20260506162111 11 64 4.8 11.3 0.00 0.03 0.03 82 1011.6
20260506161604 11 18 4.8 9.7 0.00 0.03 0.03 82 1011.6
20260506161112 11 44 4.8 9.7 0.00 0.03 0.03 82 1011.6
20260506160111 11 27 4.8 11.3 0.00 0.03 0.03 82 1011.6
20260506155559 11 23 4.8 11.3 0.00 0.03 0.03 83 1011.6
20260506155100 11 77 4.8 8.0 0.00 0.03 0.03 83 1011.6
20260506154600 11 50 4.8 9.7 0.00 0.03 0.03 83 1011.5
20260506154100 11 66 3.2 9.7 0.00 0.03 0.03 83 1011.6
20260506153601 11 98 3.2 11.3 0.00 0.03 0.03 83 1011.6
20260506153055 11 40 4.8 11.3 0.03 0.03 0.03 83 1011.5
20260506152557 11 71 4.8 11.3 0.03 0.03 0.03 83 1011.5
20260506152056 10 31 4.8 11.3 0.03 0.03 0.03 84 1011.5
20260506151556 11 75 4.8 9.7 0.03 0.03 0.03 85 1011.5
20260506151055 10 62 4.8 9.7 0.03 0.03 0.03 84 1011.4
20260506150555 10 68 4.8 11.3 0.03 0.03 0.03 85 1011.4
20260506150059 10 12 4.8 12.9 0.03 0.03 0.03 86 1011.4
20260506144050 10 27 4.8 11.3 0.03 0.03 0.03 88 1011.4
20260506143543 10 44 6.4 12.9 0.03 0.03 0.03 87 1011.5
20260506143041 11 62 6.4 12.9 0.00 0.00 0.00 86 1011.5
20260506142541 11 71 4.8 16.1 0.00 0.00 0.00 86 1011.4
20260506141539 11 67 6.4 16.1 0.00 0.00 0.00 83 1011.4
20260506140535 11 332 6.4 4.8 0.00 0.00 0.00 82 1011.3
20260506134704 11 105 8.0 17.7 0.00 0.00 0.00 81 1011.4
20260506134205 12 68 6.4 17.7 0.00 0.00 0.00 79 1011.4
20260506133704 12 31 4.8 12.9 0.00 0.00 0.00 78 1011.3
20260506132206 12 62 4.8 12.9 0.00 0.00 0.00 75 1011.2
20260506130700 12 51 6.4 16.1 0.00 0.00 0.00 74 1011.3
20260506125659 13 65 4.8 12.9 0.00 0.00 0.00 71 1011.2
20260506125200 13 59 4.8 12.9 0.00 0.00 0.00 70 1011.2
20260506124700 13 33 4.8 12.9 0.00 0.00 0.00 71 1011.2
20260506124158 13 7 4.8 12.9 0.00 0.00 0.00 70 1011.2
20260506123658 13 56 4.8 11.3 0.00 0.00 0.00 70 1011.1
20260506123154 13 56 3.2 11.3 0.00 0.00 0.00 69 1011.2
20260506122656 13 84 3.2 11.3 0.00 0.00 0.00 71 1011.2
20260506122153 13 82 3.2 11.3 0.00 0.00 0.00 69 1011.2
20260506121150 13 269 3.2 9.7 0.00 0.00 0.00 71 1011.1
20260506120651 13 85 3.2 8.0 0.00 0.00 0.00 71 1011.1
20260506120144 13 276 3.2 8.0 0.00 0.00 0.00 72 1011.1
20260506115644 12 251 1.6 9.7 0.00 0.00 0.00 73 1011.1
20260506115145 12 307 1.6 9.7 0.00 0.00 0.00 73 1011.2
20260506114644 12 37 3.2 9.7 0.00 0.00 0.00 74 1011.2
20260506114145 12 357 4.8 9.7 0.00 0.00 0.00 74 1011.2
20260506113145 12 50 3.2 11.3 0.00 0.00 0.00 74 1011.1
20260506112641 12 44 3.2 9.7 0.00 0.00 0.00 74 1011.2
20260506112141 12 90 3.2 9.7 0.00 0.00 0.00 74 1011.2
20260506111638 12 9 3.2 9.7 0.00 0.00 0.00 75 1011.2
20260506111139 12 77 3.2 4.8 0.00 0.00 0.00 75 1011.2
20260506105714 12 297 4.8 14.5 0.00 0.00 0.00 74 1011.2
20260506105214 12 25 4.8 14.5 0.00 0.00 0.00 74 1011.2
20260506104715 12 67 4.8 9.7 0.00 0.00 0.00 74 1011.2
20260506104213 12 20 4.8 14.5 0.00 0.00 0.00 74 1011.2
20260506103713 12 34 6.4 16.1 0.00 0.00 0.00 73 1011.2
20260506103207 12 47 4.8 16.1 0.00 0.00 0.00 72 1011.3
20260506102707 12 39 6.4 14.5 0.00 0.00 0.00 73 1011.3
20260506102207 12 321 6.4 17.7 0.00 0.00 0.00 74 1011.2
20260506101707 12 47 6.4 17.7 0.00 0.00 0.00 73 1011.2
20260506100214 12 80 6.4 16.1 0.00 0.00 0.00 75 1011.2
20260506095659 12 30 4.8 16.1 0.00 0.00 0.00 77 1011.1
20260506095201 11 330 4.8 12.9 0.00 0.00 0.00 77 1011.1
20260506094701 11 355 4.8 11.3 0.00 0.00 0.00 78 1011.2
20260506093700 11 79 4.8 11.3 0.00 0.00 0.00 79 1011.2
20260506093157 11 80 4.8 19.3 0.00 0.00 0.00 80 1011.2
20260506092657 11 61 4.8 19.3 0.00 0.00 0.00 80 1011.2
20260506092156 11 64 4.8 16.1 0.00 0.00 0.00 79 1011.1
20260506091656 11 5 4.8 17.7 0.00 0.00 0.00 80 1011.1
20260506090657 11 237 4.8 12.9 0.00 0.00 0.00 82 1011.0
20260506085650 10 261 4.8 12.9 0.00 0.00 0.00 82 1010.9
20260506085151 10 158 3.2 12.9 0.00 0.00 0.00 82 1010.9
20260506084151 10 345 4.8 17.7 0.00 0.00 0.00 82 1010.9
20260506083650 10 162 4.8 17.7 0.00 0.00 0.00 82 1010.9
20260506082648 10 20 4.8 12.9 0.00 0.00 0.00 83 1010.8
20260506082149 10 339 3.2 12.9 0.00 0.00 0.00 83 1010.8
20260506081649 10 124 3.2 14.5 0.00 0.00 0.00 83 1010.8
20260506081147 10 34 3.2 16.1 0.00 0.00 0.00 84 1010.9
20260506080649 10 47 3.2 16.1 0.00 0.00 0.00 84 1010.9
20260506080146 10 20 3.2 14.5 0.00 0.00 0.00 84 1010.8
20260506073137 10 296 3.2 12.9 0.00 0.00 0.00 85 1010.7
20260506072631 10 265 3.2 16.1 0.00 0.00 0.00 85 1010.7
20260506072127 10 261 4.8 16.1 0.00 0.00 0.00 85 1010.6
20260506071629 10 272 4.8 12.9 0.00 0.00 0.00 84 1010.5
20260506070627 10 274 3.2 11.3 0.00 0.00 0.00 84 1010.5